Regional Weather Roundup
Issued by NWS

Home | Current Version | Previous Version | Graphics & Text | Print | Product List | Glossary On
Versions: 1 2 3 4 5 6 7 8 9 10 11 12 13 14 15 16 17 18 19 20 21 22 23 24 25 26 27 28 29 30 31 32 33 34 35 36 37 38 39 40 41 42 43 44 45 46 47 48 49 50
119
ASUS43 KLSX 272359
RWRMO

WEATHER SUMMARY FOR MISSOURI
NATIONAL WEATHER SERVICE SPRINGFIELD MO
700 PM CDT TUE JUN 27 2017

NOTE: "FAIR" INDICATES FEW OR NO CLOUDS BELOW 12,000 FEET WITH NO
       SIGNIFICANT WEATHER AND/OR OBSTRUCTIONS TO VISIBILITY.
       CURRENT SKY AND/OR WEATHER CONDITIONS ARE NOT AVAILABLE FOR
       CHILLICOTHE AND FARMINGTON.

MOZ001>031-035>038-043-044-053-054-280100-
...NORTHERN AND WESTERN MISSOURI...

CITY           SKY/WX    TMP DP  RH WIND       PRES   REMARKS
KANSAS CTY INT MOSUNNY   78  67  68 S10       29.91F
6HR MIN TEMP:  76; 6HR MAX TEMP:  81;

KANSAS C DTWN  MOSUNNY   81  65  58 S14G21    29.90F
6HR MIN TEMP:  78; 6HR MAX TEMP:  83;

LEE`S SUMMIT   PTSUNNY   79  65  62 S13       29.93F
6HR MIN TEMP:  76; 6HR MAX TEMP:  81;

ST JOSEPH      PTSUNNY   80  67  64 S15       29.88F
6HR MIN TEMP:  76; 6HR MAX TEMP:  81;

CHILLICOTHE      N/A     78  62  57 SE14G20   29.94F
6HR MIN TEMP:  76; 6HR MAX TEMP:  81;

KIRKSVILLE     SUNNY     77  54  44 SE14      29.97F
6HR MIN TEMP:  75; 6HR MAX TEMP:  79;


$$
MOZ066>068-077>081-088>096-101>105-280100-
...SOUTHWEST MISSOURI...

CITY           SKY/WX    TMP DP  RH WIND       PRES   REMARKS
SPRINGFIELD    MOSUNNY   79  63  57 S13       29.99F
6HR MIN TEMP:  77; 6HR MAX TEMP:  82;

JOPLIN         PTSUNNY   84  65  52 S12       29.96F
6HR MIN TEMP:  81; 6HR MAX TEMP:  86;

BRANSON        PTSUNNY   81  61  50 SE8       30.03F

$$
MOZ032>034-039>042-045>050-055>058-069>072-280100-
...CENTRAL MISSOURI...

CITY           SKY/WX    TMP DP  RH WIND       PRES   REMARKS
COLUMBIA       SUNNY     79  61  53 SE10      29.99F
6HR MIN TEMP:  75; 6HR MAX TEMP:  80;

JEFFERSON CITY MOSUNNY   81  59  47 S10       29.98F
6HR MIN TEMP:  75; 6HR MAX TEMP:  82;

ROLLA          SUNNY     78  59  51 SE8       30.00F
6HR MIN TEMP:  74; 6HR MAX TEMP:  81;

SEDALIA        MOSUNNY   79  67  66 SE10      29.98F
6HR MIN TEMP:  76; 6HR MAX TEMP:  82;

WARRENSBURG    MOSUNNY   79  64  61 SE9       29.94F
OSAGE BEACH    SUNNY     79  65  62 SE6       30.00F

$$
MOZ051-052-059>065-280100-
...EAST CENTRAL MISSOURI...

CITY           SKY/WX    TMP DP  RH WIND       PRES   REMARKS
ST LOUIS INTL  MOSUNNY   81  48  31 S8        30.02F
6HR MIN TEMP:  77; 6HR MAX TEMP:  83;

SPIRIT OF STL  SUNNY     80  53  39 SE5       30.00F
6HR MIN TEMP:  77; 6HR MAX TEMP:  82;

ST CHARLES     SUNNY     79  50  36 S9        30.01F
6HR MIN TEMP:  76; 6HR MAX TEMP:  81;


$$
MOZ072>076-082>087-097>100-106>115-280100-
...SOUTH CENTRAL AND SOUTHEAST MISSOURI...

CITY           SKY/WX    TMP DP  RH WIND       PRES   REMARKS
CAPE GIRARDEAU SUNNY     78  56  46 SE5       30.04S
6HR MIN TEMP:  77; 6HR MAX TEMP:  81;

FARMINGTON     MOSUNNY   76  59  55 SE5       30.05F
6HR MIN TEMP:  75; 6HR MAX TEMP:  81;

POPLAR BLUFF   SUNNY     79  59  50 S5        30.04S
6HR MIN TEMP:  76; 6HR MAX TEMP:  81;

WEST PLAINS    SUNNY     77  63  61 SE7       30.05F
6HR MIN TEMP:  74; 6HR MAX TEMP:  79;


$$




USA.gov is the U.S. government's official web portal to all federal, state and local government web resources and services.